Orbital Elements at Epoch 2459200.5 (2020-Dec-17.0) TDB
Reference: JPL 19 (heliocentric ecliptic J2000)
Element | Value | Uncertainty (1-sigma) | Units |
e | .06830758392434794 | 5.5715e-08 | |
a | 2.4371082451538 | 1.2594e-08 | au |
q | 2.270635269165237 | 1.2882e-07 | au |
i | 6.836968418629892 | 4.359e-06 | deg |
node | 161.5129509322334 | 3.3768e-05 | deg |
peri | 353.7038371392491 | 6.2102e-05 | deg |
M | 229.6791115746972 | 5.645e-05 | deg |
tp | 2459703.562780115897 (2022-May-04.06278012) | 0.00022088 | TDB |
period | 1389.666714446373 3.80 | 1.0772e-05 2.949e-08 | d yr |
n | .2590549203327646 | 2.008e-09 | deg/d |
Q | 2.603581221142364 | 1.3454e-08 | au |
|
| | Orbit Determination Parameters
Additional Information
|